When you browse on this site, cookies collect data to enhance your experience and personalize the content and advertising you see.
Visit our Privacy Policy to learn more. By continuing to use the site, you agree to this use of cookies and data.
  • In Sweden
  • List of Countries
  • For 7 days
  • Water Temperature
  • Weather Map
  • Weather Widgets
  • user-avatar
    Login

    Hourly Weather Nagykarácsony

    Today, 18 November, Monday

    Time Temperature Precipitation Wind Pressure Humidity
    00:00 +11°C° 0 mm 6 mps 742 mmHg 76%
    01:00 +11°C° 0 mm 6 mps 742 mmHg 75%
    02:00 +11°C° 0 mm 6 mps 742 mmHg 76%
    03:00 +11°C° 0 mm 6 mps 741 mmHg 76%
    04:00 +11°C° 0 mm 6 mps 741 mmHg 77%
    05:00 +11°C° 0 mm 6 mps 741 mmHg 77%
    06:00 +11°C° 0 mm 6 mps 741 mmHg 77%
    07:00 +11°C° 0 mm 6 mps 742 mmHg 75%
    08:00 +11°C° 0.2 mm 6 mps 742 mmHg 75%
    09:00 +13°C° 0.2 mm 6 mps 743 mmHg 74%
    10:00 +13°C° 0.2 mm 6 mps 743 mmHg 74%
    11:00 +13°C° 0 mm 6 mps 744 mmHg 65%
    12:00 +14°C° 0 mm 5 mps 744 mmHg 57%
    13:00 +14°C° 0 mm 5 mps 744 mmHg 48%
    14:00 +13°C° 0 mm 5 mps 745 mmHg 52%
    15:00 +13°C° 0 mm 4 mps 745 mmHg 55%
    16:00 +12°C° 0 mm 3 mps 745 mmHg 59%
    17:00 +11°C° 0 mm 3 mps 746 mmHg 62%
    18:00 +11°C° 0 mm 3 mps 747 mmHg 65%
    19:00 +10°C° 0 mm 3 mps 747 mmHg 68%
    20:00 +10°C° 0 mm 3 mps 747 mmHg 68%
    21:00 +10°C° 0 mm 2 mps 748 mmHg 67%
    22:00 +9°C° 0 mm 2 mps 748 mmHg 67%
    23:00 +9°C° 0 mm 2 mps 749 mmHg 67%

    Tomorrow, 19 November, Tuesday

    Time Temperature Precipitation Wind Pressure Humidity
    00:00 +9°C° 0 mm 2 mps 749 mmHg 66%
    01:00 +9°C° 0 mm 2 mps 749 mmHg 66%
    02:00 +9°C° 0 mm 2 mps 749 mmHg 66%
    03:00 +8°C° 0 mm 3 mps 749 mmHg 66%
    04:00 +8°C° 0 mm 3 mps 749 mmHg 66%
    05:00 +8°C° 0 mm 3 mps 749 mmHg 74%
    06:00 +8°C° 0 mm 3 mps 749 mmHg 81%
    07:00 +8°C° 0 mm 3 mps 749 mmHg 89%
    08:00 +9°C° 0 mm 3 mps 749 mmHg 85%
    09:00 +10°C° 0 mm 4 mps 749 mmHg 80%
    10:00 +11°C° 0 mm 4 mps 750 mmHg 76%
    11:00 +12°C° 0 mm 4 mps 749 mmHg 73%
    12:00 +13°C° 0 mm 4 mps 749 mmHg 70%
    13:00 +14°C° 0 mm 4 mps 749 mmHg 67%
    14:00 +13°C° 0 mm 4 mps 748 mmHg 70%
    15:00 +13°C° 0 mm 3 mps 748 mmHg 74%
    16:00 +12°C° 0 mm 3 mps 748 mmHg 78%
    17:00 +11°C° 0 mm 3 mps 748 mmHg 80%
    18:00 +11°C° 0 mm 3 mps 748 mmHg 82%
    19:00 +10°C° 0 mm 3 mps 748 mmHg 84%
    20:00 +10°C° 0 mm 3 mps 748 mmHg 84%
    21:00 +10°C° 0 mm 3 mps 748 mmHg 85%
    22:00 +10°C° 0 mm 3 mps 748 mmHg 85%
    23:00 +10°C° 0 mm 3 mps 748 mmHg 87%

    Day after tomorrow, 20 November, Wednesday

    Time Temperature Precipitation Wind Pressure Humidity
    00:00 +9°C° 0 mm 3 mps 747 mmHg 88%
    01:00 +9°C° 0 mm 3 mps 747 mmHg 90%
    02:00 +9°C° 0 mm 3 mps 747 mmHg 90%
    03:00 +9°C° 0 mm 3 mps 747 mmHg 90%
    04:00 +9°C° 0 mm 3 mps 746 mmHg 90%
    05:00 +9°C° 0 mm 3 mps 746 mmHg 87%
    06:00 +8°C° 0 mm 4 mps 746 mmHg 85%
    07:00 +8°C° 0 mm 4 mps 746 mmHg 82%
    08:00 +10°C° 0 mm 4 mps 745 mmHg 80%
    09:00 +10°C° 0 mm 4 mps 745 mmHg 79%
    10:00 +10°C° 0 mm 4 mps 745 mmHg 77%
    11:00 +10°C° 1.6 mm 4 mps 744 mmHg 81%
    12:00 +10°C° 1.6 mm 4 mps 744 mmHg 84%
    13:00 +9°C° 1.6 mm 5 mps 744 mmHg 88%
    14:00 +9°C° 1.2 mm 5 mps 744 mmHg 90%
    15:00 +9°C° 1.2 mm 5 mps 743 mmHg 91%
    16:00 +10°C° 1.2 mm 6 mps 743 mmHg 92%
    17:00 +9°C° 0.1 mm 5 mps 743 mmHg 92%
    18:00 +10°C° 0.1 mm 4 mps 743 mmHg 92%
    19:00 +10°C° 0.1 mm 3 mps 744 mmHg 92%
    20:00 +10°C° 0 mm 3 mps 744 mmHg 92%
    21:00 +9°C° 0 mm 3 mps 744 mmHg 92%
    22:00 +9°C° 0 mm 3 mps 744 mmHg 92%
    23:00 +8°C° 0.4 mm 4 mps 744 mmHg 92%

    21 November, Thursday

    Time Temperature Precipitation Wind Pressure Humidity
    00:00 +8°C° 0.4 mm 4 mps 744 mmHg 92%
    01:00 +8°C° 0.4 mm 4 mps 744 mmHg 92%
    02:00 +8°C° 0.2 mm 4 mps 744 mmHg 91%
    03:00 +8°C° 0.2 mm 4 mps 744 mmHg 91%
    04:00 +8°C° 0.2 mm 4 mps 744 mmHg 91%
    05:00 +8°C° 0 mm 3 mps 745 mmHg 92%
    06:00 +8°C° 0 mm 3 mps 745 mmHg 92%
    07:00 +8°C° 0 mm 3 mps 745 mmHg 92%
    08:00 +9°C° 0 mm 3 mps 745 mmHg 86%
    09:00 +10°C° 0 mm 3 mps 746 mmHg 79%
    10:00 +12°C° 0 mm 4 mps 746 mmHg 72%
    11:00 +12°C° 0 mm 4 mps 746 mmHg 69%
    12:00 +13°C° 0 mm 4 mps 746 mmHg 65%
    13:00 +14°C° 0 mm 4 mps 746 mmHg 62%
    14:00 +13°C° 0 mm 3 mps 746 mmHg 66%
    15:00 +12°C° 0 mm 3 mps 746 mmHg 70%
    16:00 +12°C° 0 mm 2 mps 746 mmHg 74%
    17:00 +12°C° 0 mm 2 mps 746 mmHg 76%
    18:00 +10°C° 0 mm 2 mps 746 mmHg 77%
    19:00 +10°C° 0 mm 2 mps 747 mmHg 79%
    20:00 +10°C° 0 mm 2 mps 747 mmHg 81%
    21:00 +9°C° 0 mm 2 mps 747 mmHg 83%
    22:00 +9°C° 0 mm 2 mps 747 mmHg 85%
    23:00 +9°C° 0 mm 2 mps 747 mmHg 88%

    22 November, Friday

    Time Temperature Precipitation Wind Pressure Humidity
    00:00 +9°C° 0 mm 2 mps 747 mmHg 90%
    01:00 +9°C° 0 mm 2 mps 747 mmHg 92%
    02:00 +9°C° 0 mm 2 mps 747 mmHg 92%
    03:00 +9°C° 0 mm 2 mps 747 mmHg 93%
    04:00 +9°C° 0 mm 2 mps 747 mmHg 94%
    05:00 +9°C° 0 mm 3 mps 747 mmHg 93%
    06:00 +9°C° 0 mm 3 mps 747 mmHg 92%
    07:00 +8°C° 0 mm 3 mps 747 mmHg 91%
    08:00 +8°C° 0 mm 4 mps 747 mmHg 87%
    09:00 +10°C° 0 mm 4 mps 748 mmHg 82%
    10:00 +10°C° 0 mm 5 mps 748 mmHg 78%
    11:00 +12°C° 0 mm 5 mps 747 mmHg 76%
    12:00 +12°C° 0 mm 5 mps 747 mmHg 74%
    13:00 +12°C° 0 mm 5 mps 747 mmHg 73%
    14:00 +12°C° 0 mm 5 mps 747 mmHg 73%
    15:00 +12°C° 0 mm 5 mps 747 mmHg 74%
    16:00 +10°C° 0 mm 5 mps 746 mmHg 74%
    17:00 +10°C° 0 mm 5 mps 746 mmHg 75%
    18:00 +9°C° 0 mm 5 mps 746 mmHg 76%
    19:00 +9°C° 0 mm 5 mps 747 mmHg 77%
    20:00 +9°C° 0 mm 5 mps 746 mmHg 79%
    21:00 +8°C° 0 mm 5 mps 746 mmHg 81%
    22:00 +8°C° 0 mm 5 mps 746 mmHg 82%
    23:00 +7°C° 0 mm 4 mps 746 mmHg 83%

    23 November, Saturday

    Time Temperature Precipitation Wind Pressure Humidity
    00:00 +7°C° 0 mm 4 mps 746 mmHg 85%
    01:00 +7°C° 0 mm 4 mps 746 mmHg 86%
    02:00 +6°C° 0 mm 4 mps 745 mmHg 87%
    03:00 +6°C° 0 mm 4 mps 745 mmHg 87%
    04:00 +7°C° 0 mm 3 mps 745 mmHg 88%
    05:00 +5°C° 0 mm 3 mps 745 mmHg 90%
    06:00 +5°C° 0 mm 3 mps 745 mmHg 91%
    07:00 +5°C° 0 mm 3 mps 744 mmHg 92%
    08:00 +6°C° 0 mm 4 mps 745 mmHg 88%
    09:00 +7°C° 0 mm 4 mps 745 mmHg 83%
    10:00 +8°C° 0 mm 5 mps 745 mmHg 79%
    11:00 +9°C° 0 mm 5 mps 744 mmHg 75%
    12:00 +9°C° 0 mm 5 mps 744 mmHg 72%
    13:00 +10°C° 0 mm 5 mps 743 mmHg 68%
    14:00 +11°C° 0 mm 4 mps 743 mmHg 70%
    15:00 +10°C° 0 mm 4 mps 743 mmHg 73%
    16:00 +10°C° 0 mm 4 mps 742 mmHg 75%
    17:00 +8°C° 0 mm 4 mps 742 mmHg 77%
    18:00 +8°C° 0 mm 4 mps 742 mmHg 78%
    19:00 +7°C° 0 mm 5 mps 742 mmHg 80%
    20:00 +7°C° 0 mm 5 mps 742 mmHg 81%
    21:00 +6°C° 0 mm 4 mps 742 mmHg 83%
    22:00 +6°C° 0 mm 4 mps 742 mmHg 84%
    23:00 +6°C° 0 mm 4 mps 742 mmHg 85%
    Show more